Location: Johnson City
(36.3130°N, 82.3540°W)
Time: 08:58:08
(UTC-05:00)

Tiangong 1 - Visible Passes

Search period start: 20 February 2018 00:00
Search period end: 02 March 2018 00:00
Orbit: 248 x 270 km, 42.8° (Epoch: 20 February)

Date Brightness Start Highest point End Pass type
(mag) Time Alt. Az. Time Alt. Az. Time Alt. Az.
20 Feb 3.0 05:32:56 18° SE 05:32:56 18° SE 05:33:41 10° ESE visible
28 Feb 2.2 19:03:16 10° S 19:04:50 16° SE 19:05:45 14° ESE visible
01 Mar 1.5 18:54:30 10° SSW 18:56:29 27° SSE 18:58:17 12° E visible
